Flag Weather past 2 weeks in Lautoka, Fiji

Now
91 °F

Scattered clouds.


Feels Like: 94 °F
Forecast: 75 / 86 °F
Wind: 14 mph from Southeast

Location: Nandi

Current Time: Nov 26, 2014 at 2:44:58 PM

Latest Report: Nov 26, 2014 at 2:00 PM


Visibility: N/A

Pressure: 29.71 "Hg

Humidity: 44%

Dew point: 66 °F

Location of LautokaLocation

Historic Weather in Lautoka — Graph

°F

Lautoka temperature yesterday

Maximum temperature yesterday: 91 °F (at 2:00 PM)
Minimum temperature yesterday: 73 °F (at 4:00 AM)
Average temperature yesterday: 80 °F

Past Weeks' High & Low Weather Summary

 TemperatureHumidityPressure
High93 °F (Nov 21, 2:00 PM)100% (Nov 22, 4:00 AM)30.01 "Hg (Nov 22, 4:00 AM)
Low64 °F (Nov 12, 5:00 AM)38% (Nov 24, 3:00 PM)29.68 "Hg (Nov 25, 5:00 PM)
Average79 °F72%29.88 "Hg
* Reported Nov 11 1:00 PM — Nov 26 1:00 PM, Lautoka, Weather by CustomWeather, © 2014

Note: Actual official high and low records may vary slightly from our data, if they occured in-between our weather recording intervals... More about our weather records

Advertising

Lautoka weather history for previous 24 hours

 ConditionsComfort  
Time TempWeatherWind HumidityBarometerVisibility
1:00 PM
Nov 26
90 °FScattered clouds.15 mph43%29.74 "HgN/A
12:00 PM90 °FScattered clouds.15 mph43%29.77 "HgN/A
11:00 AM86 °FScattered clouds.10 mph52%29.77 "HgN/A
10:00 AM84 °FPassing clouds.7 mph55%29.80 "HgN/A
9:00 AM81 °FPassing clouds.8 mph66%29.80 "HgN/A
8:00 AM79 °FScattered clouds.8 mph70%29.80 "HgN/A
7:00 AM72 °FPassing clouds.6 mph88%29.80 "HgN/A
6:00 AM70 °FPassing clouds.6 mph88%29.77 "HgN/A
5:00 AM72 °FPassing clouds.6 mph83%29.77 "HgN/A
4:00 AM72 °FPassing clouds.7 mph88%29.77 "HgN/A
3:00 AM72 °FPassing clouds.7 mph88%29.77 "HgN/A
2:00 AM73 °FPassing clouds.8 mph78%29.77 "HgN/A
1:00 AM73 °FPassing clouds.10 mph78%29.80 "HgN/A
12:00 AM73 °FPassing clouds.8 mph78%29.83 "HgN/A
11:00 PM
Nov 25
75 °FPassing clouds.No wind78%29.83 "HgN/A
10:00 PM77 °FPassing clouds.7 mph69%29.80 "HgN/A
9:00 PM77 °FPassing clouds.8 mph79%29.80 "HgN/A
8:00 PM79 °FPassing clouds.7 mph70%29.77 "HgN/A
7:00 PM82 °FPassing clouds.12 mph62%29.74 "HgN/A
6:00 PM84 °FPassing clouds.17 mph58%29.71 "HgN/A
5:00 PM88 °FScattered clouds.14 mph52%29.68 "HgN/A
4:00 PM90 °FScattered clouds.10 mph49%29.71 "HgN/A
3:00 PM90 °FScattered clouds.9 mph43%29.71 "HgN/A
2:00 PM91 °FScattered clouds.13 mph44%29.74 "HgN/A
Weather by CustomWeather, © 2014

See weather overviewHow to use our weather pages